Time,TemperatureF,DewpointF,PressureIn,WindDirection,WindDirectionDegrees,WindSpeedMPH,WindSpeedGustMPH,Humidity,HourlyPrecipIn,Conditions,Clouds,dailyrainin,SoftwareType,DateUTC
2013-01-10 00:05:00,52.6,34.0,30.37,NNW,348,9.0,9.0,49,0.00,,,0.00,Wunderground v.1.15,2013-01-10 05:05:00,
2013-01-10 00:10:00,52.5,33.9,30.37,NW,306,8.0,9.0,49,0.00,,,0.00,Wunderground v.1.15,2013-01-10 05:10:00,
2013-01-10 00:15:00,52.3,34.2,30.37,WNW,303,7.0,9.0,50,0.00,,,0.00,Wunderground v.1.15,2013-01-10 05:15:00,
2013-01-10 00:20:00,52.2,34.1,30.38,NW,318,6.0,6.0,50,0.00,,,0.00,Wunderground v.1.15,2013-01-10 05:20:00,
2013-01-10 00:25:00,52.1,34.0,30.38,West,265,6.0,6.0,50,0.00,,,0.00,Wunderground v.1.15,2013-01-10 05:25:00,
2013-01-10 00:30:00,52.0,33.9,30.38,West,260,6.0,6.0,50,0.00,,,0.00,Wunderground v.1.15,2013-01-10 05:30:00,
2013-01-10 00:35:00,52.0,33.9,30.38,WSW,256,6.0,6.0,50,0.00,,,0.00,Wunderground v.1.15,2013-01-10 05:35:00,
2013-01-10 00:40:00,51.9,33.8,30.38,NW,305,6.0,6.0,50,0.00,,,0.00,Wunderground v.1.15,2013-01-10 05:40:00,
2013-01-10 00:45:00,51.7,33.6,30.38,WNW,298,6.0,9.0,50,0.00,,,0.00,Wunderground v.1.15,2013-01-10 05:45:00,
2013-01-10 00:50:00,51.6,34.0,30.38,NW,310,6.0,6.0,51,0.00,,,0.00,Wunderground v.1.15,2013-01-10 05:50:00,
2013-01-10 00:55:00,51.4,33.9,30.38,SW,219,6.0,6.0,51,0.00,,,0.00,Wunderground v.1.15,2013-01-10 05:55:00,
2013-01-10 01:00:00,51.3,34.3,30.38,West,275,5.0,5.0,52,0.00,,,0.00,Wunderground v.1.15,2013-01-10 06:00:00,
2013-01-10 01:05:00,51.1,34.1,30.38,WNW,287,5.0,9.0,52,0.00,,,0.00,Wunderground v.1.15,2013-01-10 06:05:00,
2013-01-10 01:10:00,51.0,34.0,30.38,WNW,302,5.0,5.0,52,0.00,,,0.00,Wunderground v.1.15,2013-01-10 06:10:00,
2013-01-10 01:15:00,50.9,33.9,30.38,NW,319,4.0,10.0,52,0.00,,,0.00,Wunderground v.1.15,2013-01-10 06:15:00,
2013-01-10 01:25:00,50.7,34.2,30.39,WNW,294,4.0,4.0,53,0.00,,,0.00,Wunderground v.1.15,2013-01-10 06:25:00,
2013-01-10 01:30:00,50.6,34.1,30.39,WNW,292,4.0,5.0,53,0.00,,,0.00,Wunderground v.1.15,2013-01-10 06:30:00,
2013-01-10 01:35:00,50.5,34.5,30.40,West,263,4.0,5.0,54,0.00,,,0.00,Wunderground v.1.15,2013-01-10 06:35:00,
2013-01-10 01:40:00,50.4,34.4,30.40,NW,304,3.0,4.0,54,0.00,,,0.00,Wunderground v.1.15,2013-01-10 06:40:00,
2013-01-10 01:55:00,50.0,34.9,30.40,NNW,336,5.0,6.0,56,0.00,,,0.00,Wunderground v.1.15,2013-01-10 06:55:00,
2013-01-10 02:00:00,49.9,34.8,30.41,NW,313,6.0,9.0,56,0.00,,,0.00,Wunderground v.1.15,2013-01-10 07:00:00,
2013-01-10 02:05:00,49.9,35.3,30.41,WNW,284,7.0,9.0,57,0.00,,,0.00,Wunderground v.1.15,2013-01-10 07:05:00,
2013-01-10 02:15:00,49.9,35.3,30.41,WNW,300,8.0,8.0,57,0.00,,,0.00,Wunderground v.1.15,2013-01-10 07:15:00,
2013-01-10 02:20:00,49.7,35.5,30.41,WNW,290,6.0,11.0,58,0.00,,,0.00,Wunderground v.1.15,2013-01-10 07:20:00,
2013-01-10 02:25:00,49.6,35.4,30.41,West,281,6.0,11.0,58,0.00,,,0.00,Wunderground v.1.15,2013-01-10 07:25:00,
2013-01-10 02:30:00,49.6,35.4,30.41,WNW,286,7.0,7.0,58,0.00,,,0.00,Wunderground v.1.15,2013-01-10 07:30:00,
2013-01-10 02:35:00,49.6,35.4,30.41,NW,315,7.0,7.0,58,0.00,,,0.00,Wunderground v.1.15,2013-01-10 07:35:00,
2013-01-10 02:45:00,49.4,35.7,30.41,NNW,334,7.0,9.0,59,0.00,,,0.00,Wunderground v.1.15,2013-01-10 07:45:00,
2013-01-10 02:50:00,49.2,35.5,30.41,WNW,284,5.0,5.0,59,0.00,,,0.00,Wunderground v.1.15,2013-01-10 07:50:00,
2013-01-10 03:00:00,49.2,35.0,30.41,NNW,329,5.0,5.0,58,0.00,,,0.00,Wunderground v.1.15,2013-01-10 08:00:00,
2013-01-10 03:05:00,49.1,34.9,30.41,NNW,331,4.0,5.0,58,0.00,,,0.00,Wunderground v.1.15,2013-01-10 08:05:00,
2013-01-10 03:10:00,49.0,35.3,30.41,NW,325,3.0,3.0,59,0.00,,,0.00,Wunderground v.1.15,2013-01-10 08:10:00,
2013-01-10 03:15:00,48.9,35.2,30.42,WNW,291,2.0,4.0,59,0.00,,,0.00,Wunderground v.1.15,2013-01-10 08:15:00,
2013-01-10 03:20:00,48.8,35.1,30.42,WNW,299,2.0,2.0,59,0.00,,,0.00,Wunderground v.1.15,2013-01-10 08:20:00,
2013-01-10 03:30:00,48.6,34.9,30.42,WNW,301,3.0,4.0,59,0.00,,,0.00,Wunderground v.1.15,2013-01-10 08:30:00,
2013-01-10 03:35:00,48.5,34.8,30.42,NW,306,5.0,5.0,59,0.00,,,0.00,Wunderground v.1.15,2013-01-10 08:35:00,
2013-01-10 03:40:00,48.3,34.6,30.42,WNW,290,4.0,8.0,59,0.00,,,0.00,Wunderground v.1.15,2013-01-10 08:40:00,
2013-01-10 03:45:00,48.2,34.5,30.42,NW,308,4.0,8.0,59,0.00,,,0.00,Wunderground v.1.15,2013-01-10 08:45:00,
2013-01-10 03:50:00,48.1,34.0,30.42,WNW,300,5.0,6.0,58,0.00,,,0.00,Wunderground v.1.15,2013-01-10 08:50:00,
2013-01-10 04:00:00,48.0,33.9,30.42,NNW,334,5.0,5.0,58,0.00,,,0.00,Wunderground v.1.15,2013-01-10 09:00:00,
2013-01-10 04:05:00,47.8,33.7,30.42,WNW,291,4.0,5.0,58,0.00,,,0.00,Wunderground v.1.15,2013-01-10 09:05:00,
2013-01-10 04:10:00,47.7,33.6,30.42,WNW,301,3.0,3.0,58,0.00,,,0.00,Wunderground v.1.15,2013-01-10 09:10:00,
2013-01-10 04:15:00,47.5,33.9,30.42,WNW,302,1.0,4.0,59,0.00,,,0.00,Wunderground v.1.15,2013-01-10 09:15:00,
2013-01-10 04:25:00,47.1,33.5,30.43,NW,307,0.0,4.0,59,0.00,,,0.00,Wunderground v.1.15,2013-01-10 09:25:00,
2013-01-10 04:30:00,47.0,33.8,30.43,NW,310,0.0,4.0,60,0.00,,,0.00,Wunderground v.1.15,2013-01-10 09:30:00,
2013-01-10 04:35:00,46.7,33.5,30.43,NW,310,0.0,4.0,60,0.00,,,0.00,Wunderground v.1.15,2013-01-10 09:35:00,
2013-01-10 04:40:00,46.5,33.8,30.43,NW,310,0.0,4.0,61,0.00,,,0.00,Wunderground v.1.15,2013-01-10 09:40:00,
2013-01-10 04:50:00,45.8,33.5,30.44,NW,310,0.0,4.0,62,0.00,,,0.00,Wunderground v.1.15,2013-01-10 09:50:00,
2013-01-10 04:55:00,45.4,33.5,30.44,NW,310,0.0,4.0,63,0.00,,,0.00,Wunderground v.1.15,2013-01-10 09:55:00,
2013-01-10 05:00:00,45.0,33.2,30.44,NW,310,0.0,4.0,63,0.00,,,0.00,Wunderground v.1.15,2013-01-10 10:00:00,
2013-01-10 05:05:00,44.5,33.5,30.44,NW,310,0.0,4.0,65,0.00,,,0.00,Wunderground v.1.15,2013-01-10 10:05:00,
2013-01-10 05:15:00,44.0,33.0,30.45,NW,310,0.0,4.0,65,0.00,,,0.00,Wunderground v.1.15,2013-01-10 10:15:00,
2013-01-10 05:20:00,44.1,32.7,30.45,NW,310,0.0,4.0,64,0.00,,,0.00,Wunderground v.1.15,2013-01-10 10:20:00,
2013-01-10 05:25:00,44.2,32.4,30.45,NW,310,0.0,4.0,63,0.00,,,0.00,Wunderground v.1.15,2013-01-10 10:25:00,
2013-01-10 05:30:00,44.2,32.4,30.46,NW,312,0.0,4.0,63,0.00,,,0.00,Wunderground v.1.15,2013-01-10 10:30:00,
2013-01-10 05:35:00,44.2,32.4,30.46,NW,311,0.0,4.0,63,0.00,,,0.00,Wunderground v.1.15,2013-01-10 10:35:00,
2013-01-10 05:45:00,44.3,31.7,30.46,NW,312,0.0,4.0,61,0.00,,,0.00,Wunderground v.1.15,2013-01-10 10:45:00,
2013-01-10 05:50:00,44.4,31.4,30.46,NW,318,1.0,4.0,60,0.00,,,0.00,Wunderground v.1.15,2013-01-10 10:50:00,
2013-01-10 05:55:00,44.5,31.1,30.46,NW,322,2.0,4.0,59,0.00,,,0.00,Wunderground v.1.15,2013-01-10 10:55:00,
2013-01-10 06:00:00,44.6,31.1,30.47,NW,309,2.0,2.0,59,0.00,,,0.00,Wunderground v.1.15,2013-01-10 11:00:00,
2013-01-10 06:05:00,44.6,31.1,30.47,NW,312,1.0,4.0,59,0.00,,,0.00,Wunderground v.1.15,2013-01-10 11:05:00,
2013-01-10 06:15:00,44.5,31.1,30.47,NW,311,0.0,4.0,59,0.00,,,0.00,Wunderground v.1.15,2013-01-10 11:15:00,
2013-01-10 06:20:00,44.3,30.9,30.48,NW,311,0.0,4.0,59,0.00,,,0.00,Wunderground v.1.15,2013-01-10 11:20:00,
2013-01-10 06:25:00,44.1,30.7,30.48,NW,309,1.0,4.0,59,0.00,,,0.00,Wunderground v.1.15,2013-01-10 11:25:00,
2013-01-10 06:30:00,43.9,30.5,30.48,WNW,292,1.0,1.0,59,0.00,,,0.00,Wunderground v.1.15,2013-01-10 11:30:00,
2013-01-10 06:40:00,43.5,30.5,30.49,WNW,292,1.0,4.0,60,0.00,,,0.00,Wunderground v.1.15,2013-01-10 11:40:00,
2013-01-10 06:45:00,43.3,30.3,30.49,WNW,284,1.0,4.0,60,0.00,,,0.00,Wunderground v.1.15,2013-01-10 11:45:00,
2013-01-10 06:50:00,43.3,30.3,30.49,WNW,290,1.0,4.0,60,0.00,,,0.00,Wunderground v.1.15,2013-01-10 11:50:00,
2013-01-10 06:55:00,43.3,30.3,30.49,NW,304,2.0,4.0,60,0.00,,,0.00,Wunderground v.1.15,2013-01-10 11:55:00,
2013-01-10 07:00:00,43.6,30.2,30.49,WNW,302,3.0,3.0,59,0.00,,,0.00,Wunderground v.1.15,2013-01-10 12:00:00,
2013-01-10 07:10:00,43.9,30.5,30.50,WNW,295,3.0,3.0,59,0.00,,,0.00,Wunderground v.1.15,2013-01-10 12:10:00,
2013-01-10 07:15:00,43.8,30.4,30.50,WNW,296,1.0,4.0,59,0.00,,,0.00,Wunderground v.1.15,2013-01-10 12:15:00,
2013-01-10 07:20:00,43.8,30.4,30.51,WNW,292,2.0,5.0,59,0.00,,,0.00,Wunderground v.1.15,2013-01-10 12:20:00,
2013-01-10 07:25:00,43.7,30.3,30.51,WNW,300,4.0,5.0,59,0.00,,,0.00,Wunderground v.1.15,2013-01-10 12:25:00,
2013-01-10 07:35:00,43.6,30.2,30.52,WNW,295,3.0,4.0,59,0.00,,,0.00,Wunderground v.1.15,2013-01-10 12:35:00,
2013-01-10 07:40:00,43.5,30.1,30.52,WNW,288,2.0,5.0,59,0.00,,,0.00,Wunderground v.1.15,2013-01-10 12:40:00,
2013-01-10 07:45:00,43.4,30.0,30.52,West,281,2.0,5.0,59,0.00,,,0.00,Wunderground v.1.15,2013-01-10 12:45:00,
2013-01-10 07:50:00,43.2,30.2,30.53,NW,304,2.0,4.0,60,0.00,,,0.00,Wunderground v.1.15,2013-01-10 12:50:00,
2013-01-10 07:55:00,43.3,30.3,30.53,NW,307,2.0,4.0,60,0.00,,,0.00,Wunderground v.1.15,2013-01-10 12:55:00,
2013-01-10 08:05:00,43.5,30.1,30.54,NW,325,3.0,4.0,59,0.00,,,0.00,Wunderground v.1.15,2013-01-10 13:05:00,
2013-01-10 08:10:00,43.6,30.6,30.54,NW,310,3.0,4.0,60,0.00,,,0.00,Wunderground v.1.15,2013-01-10 13:10:00,
2013-01-10 08:15:00,43.8,30.4,30.54,NW,306,3.0,4.0,59,0.00,,,0.00,Wunderground v.1.15,2013-01-10 13:15:00,
2013-01-10 08:20:00,44.0,30.6,30.54,North,355,3.0,4.0,59,0.00,,,0.00,Wunderground v.1.15,2013-01-10 13:20:00,
2013-01-10 08:25:00,44.1,30.7,30.55,North,360,2.0,5.0,59,0.00,,,0.00,Wunderground v.1.15,2013-01-10 13:25:00,
2013-01-10 08:35:00,44.3,30.9,30.55,NW,309,2.0,5.0,59,0.00,,,0.00,Wunderground v.1.15,2013-01-10 13:35:00,
2013-01-10 08:40:00,44.4,31.0,30.55,NW,316,2.0,2.0,59,0.00,,,0.00,Wunderground v.1.15,2013-01-10 13:40:00,
2013-01-10 08:45:00,44.4,31.0,30.56,NNW,344,2.0,4.0,59,0.00,,,0.00,Wunderground v.1.15,2013-01-10 13:45:00,
2013-01-10 08:55:00,44.5,31.1,30.56,North,355,2.0,4.0,59,0.00,,,0.00,Wunderground v.1.15,2013-01-10 13:55:00,
2013-01-10 09:00:00,44.6,30.7,30.56,NW,311,3.0,4.0,58,0.00,,,0.00,Wunderground v.1.15,2013-01-10 14:00:00,
2013-01-10 09:05:00,44.8,30.9,30.57,WNW,291,2.0,4.0,58,0.00,,,0.00,Wunderground v.1.15,2013-01-10 14:05:00,
2013-01-10 09:10:00,44.9,31.4,30.56,NW,307,3.0,3.0,59,0.00,,,0.00,Wunderground v.1.15,2013-01-10 14:10:00,
2013-01-10 09:15:00,45.0,31.5,30.57,NW,314,3.0,4.0,59,0.00,,,0.00,Wunderground v.1.15,2013-01-10 14:15:00,
2013-01-10 09:25:00,45.3,31.4,30.57,NNW,337,3.0,5.0,58,0.00,,,0.00,Wunderground v.1.15,2013-01-10 14:25:00,
2013-01-10 09:30:00,45.3,31.4,30.57,NW,319,4.0,10.0,58,0.00,,,0.00,Wunderground v.1.15,2013-01-10 14:30:00,
2013-01-10 09:35:00,45.3,31.4,30.57,North,11,5.0,10.0,58,0.00,,,0.00,Wunderground v.1.15,2013-01-10 14:35:00,
2013-01-10 09:40:00,45.3,31.8,30.57,NNW,338,4.0,4.0,59,0.00,,,0.00,Wunderground v.1.15,2013-01-10 14:40:00,
2013-01-10 09:50:00,45.6,31.7,30.58,NW,317,3.0,9.0,58,0.00,,,0.00,Wunderground v.1.15,2013-01-10 14:50:00,
2013-01-10 09:55:00,45.8,31.9,30.58,WNW,295,3.0,9.0,58,0.00,,,0.00,Wunderground v.1.15,2013-01-10 14:55:00,
2013-01-10 10:00:00,45.8,31.9,30.58,WNW,292,3.0,5.0,58,0.00,,,0.00,Wunderground v.1.15,2013-01-10 15:00:00,
2013-01-10 10:10:00,45.8,31.9,30.58,WNW,292,5.0,5.0,58,0.00,,,0.00,Wunderground v.1.15,2013-01-10 15:10:00,
2013-01-10 10:15:00,46.0,32.0,30.59,NW,323,5.0,5.0,58,0.00,,,0.00,Wunderground v.1.15,2013-01-10 15:15:00,
2013-01-10 10:20:00,46.1,32.1,30.58,NNW,327,3.0,4.0,58,0.00,,,0.00,Wunderground v.1.15,2013-01-10 15:20:00,
2013-01-10 10:25:00,46.3,32.3,30.59,NNW,329,4.0,4.0,58,0.00,,,0.00,Wunderground v.1.15,2013-01-10 15:25:00,
2013-01-10 10:30:00,46.7,32.3,30.58,NW,326,3.0,3.0,57,0.00,,,0.00,Wunderground v.1.15,2013-01-10 15:30:00,
2013-01-10 10:40:00,46.9,32.4,30.58,WNW,292,3.0,3.0,57,0.00,,,0.00,Wunderground v.1.15,2013-01-10 15:40:00,
2013-01-10 10:45:00,47.3,32.8,30.58,NNW,348,2.0,5.0,57,0.00,,,0.00,Wunderground v.1.15,2013-01-10 15:45:00,
2013-01-10 10:50:00,47.2,32.3,30.57,NW,325,3.0,4.0,56,0.00,,,0.00,Wunderground v.1.15,2013-01-10 15:50:00,
2013-01-10 10:55:00,47.4,32.9,30.57,West,277,3.0,5.0,57,0.00,,,0.00,Wunderground v.1.15,2013-01-10 15:55:00,
2013-01-10 11:00:00,47.8,33.3,30.57,NNW,339,3.0,8.0,57,0.00,,,0.00,Wunderground v.1.15,2013-01-10 16:00:00,
2013-01-10 11:10:00,48.0,33.0,30.57,WNW,298,4.0,5.0,56,0.00,,,0.00,Wunderground v.1.15,2013-01-10 16:10:00,
2013-01-10 11:15:00,48.0,32.1,30.57,NNW,343,4.0,6.0,54,0.00,,,0.00,Wunderground v.1.15,2013-01-10 16:15:00,
2013-01-10 11:20:00,48.1,32.2,30.57,NNW,344,4.0,9.0,54,0.00,,,0.00,Wunderground v.1.15,2013-01-10 16:20:00,
2013-01-10 11:25:00,48.1,32.2,30.56,North,360,4.0,9.0,54,0.00,,,0.00,Wunderground v.1.15,2013-01-10 16:25:00,
2013-01-10 11:30:00,48.4,32.0,30.56,NNW,329,4.0,7.0,53,0.00,,,0.00,Wunderground v.1.15,2013-01-10 16:30:00,
2013-01-10 11:40:00,48.4,32.0,30.55,WNW,300,6.0,6.0,53,0.00,,,0.00,Wunderground v.1.15,2013-01-10 16:40:00,
2013-01-10 11:45:00,48.7,32.8,30.55,WNW,292,3.0,6.0,54,0.00,,,0.00,Wunderground v.1.15,2013-01-10 16:45:00,
2013-01-10 11:50:00,49.0,32.6,30.54,NW,309,3.0,3.0,53,0.00,,,0.00,Wunderground v.1.15,2013-01-10 16:50:00,
2013-01-10 12:00:00,49.7,32.8,30.53,NNW,348,3.0,3.0,52,0.00,,,0.00,Wunderground v.1.15,2013-01-10 17:00:00,
2013-01-10 12:05:00,49.6,32.7,30.53,NW,321,3.0,4.0,52,0.00,,,0.00,Wunderground v.1.15,2013-01-10 17:05:00,
2013-01-10 12:10:00,49.8,32.4,30.53,NNW,336,3.0,3.0,51,0.00,,,0.00,Wunderground v.1.15,2013-01-10 17:10:00,
2013-01-10 12:15:00,49.8,31.9,30.53,North,360,3.0,4.0,50,0.00,,,0.00,Wunderground v.1.15,2013-01-10 17:15:00,
2013-01-10 12:20:00,49.8,32.9,30.53,NNW,333,3.0,3.0,52,0.00,,,0.00,Wunderground v.1.15,2013-01-10 17:20:00,
2013-01-10 12:30:00,50.1,32.7,30.52,NE,37,2.0,4.0,51,0.00,,,0.00,Wunderground v.1.15,2013-01-10 17:30:00,
2013-01-10 12:35:00,50.6,33.1,30.52,NNW,329,3.0,4.0,51,0.00,,,0.00,Wunderground v.1.15,2013-01-10 17:35:00,
2013-01-10 12:40:00,50.5,33.0,30.51,North,355,2.0,2.0,51,0.00,,,0.00,Wunderground v.1.15,2013-01-10 17:40:00,
2013-01-10 12:45:00,51.0,34.0,30.52,ENE,63,2.0,4.0,52,0.00,,,0.00,Wunderground v.1.15,2013-01-10 17:45:00,
2013-01-10 12:50:00,51.3,33.3,30.52,WNW,286,2.0,2.0,50,0.00,,,0.00,Wunderground v.1.15,2013-01-10 17:50:00,
2013-01-10 13:00:00,51.2,32.7,30.51,WNW,299,3.0,3.0,49,0.00,,,0.00,Wunderground v.1.15,2013-01-10 18:00:00,
2013-01-10 13:05:00,51.0,32.5,30.52,NW,322,4.0,11.0,49,0.00,,,0.00,Wunderground v.1.15,2013-01-10 18:05:00,
2013-01-10 13:10:00,51.1,32.6,30.51,WNW,302,4.0,4.0,49,0.00,,,0.00,Wunderground v.1.15,2013-01-10 18:10:00,
2013-01-10 13:15:00,50.9,31.9,30.51,NW,320,5.0,5.0,48,0.00,,,0.00,Wunderground v.1.15,2013-01-10 18:15:00,
2013-01-10 13:20:00,50.9,32.4,30.51,NW,314,5.0,5.0,49,0.00,,,0.00,Wunderground v.1.15,2013-01-10 18:20:00,
2013-01-10 13:30:00,51.4,32.9,30.51,North,350,4.0,7.0,49,0.00,,,0.00,Wunderground v.1.15,2013-01-10 18:30:00,
2013-01-10 13:35:00,51.8,33.2,30.51,WNW,284,3.0,7.0,49,0.00,,,0.00,Wunderground v.1.15,2013-01-10 18:35:00,
2013-01-10 13:40:00,52.3,32.6,30.51,NNW,334,2.0,2.0,47,0.00,,,0.00,Wunderground v.1.15,2013-01-10 18:40:00,
2013-01-10 13:50:00,52.2,32.0,30.51,NW,309,4.0,5.0,46,0.00,,,0.00,Wunderground v.1.15,2013-01-10 18:50:00,
2013-01-10 13:55:00,51.8,32.2,30.50,NNW,346,5.0,5.0,47,0.00,,,0.00,Wunderground v.1.15,2013-01-10 18:55:00,
2013-01-10 14:00:00,52.3,33.2,30.50,North,5,4.0,4.0,48,0.00,,,0.00,Wunderground v.1.15,2013-01-10 19:00:00,
2013-01-10 14:05:00,52.7,32.5,30.50,NNW,348,2.0,4.0,46,0.00,,,0.00,Wunderground v.1.15,2013-01-10 19:05:00,
2013-01-10 14:10:00,52.8,32.6,30.50,NNW,340,3.0,3.0,46,0.00,,,0.00,Wunderground v.1.15,2013-01-10 19:10:00,
2013-01-10 14:20:00,53.0,32.2,30.50,WNW,286,3.0,3.0,45,0.00,,,0.00,Wunderground v.1.15,2013-01-10 19:20:00,
2013-01-10 14:25:00,53.5,33.2,30.49,NNW,336,2.0,4.0,46,0.00,,,0.00,Wunderground v.1.15,2013-01-10 19:25:00,
2013-01-10 14:30:00,53.8,33.5,30.49,North,360,1.0,4.0,46,0.00,,,0.00,Wunderground v.1.15,2013-01-10 19:30:00,
2013-01-10 14:35:00,54.0,33.1,30.49,NW,323,2.0,4.0,45,0.00,,,0.00,Wunderground v.1.15,2013-01-10 19:35:00,
2013-01-10 14:40:00,53.7,33.4,30.49,NNW,328,2.0,4.0,46,0.00,,,0.00,Wunderground v.1.15,2013-01-10 19:40:00,
2013-01-10 14:50:00,54.7,33.8,30.49,NNW,333,1.0,4.0,45,0.00,,,0.00,Wunderground v.1.15,2013-01-10 19:50:00,
2013-01-10 14:55:00,54.6,34.2,30.49,NE,49,1.0,4.0,46,0.00,,,0.00,Wunderground v.1.15,2013-01-10 19:55:00,
2013-01-10 15:00:00,54.8,33.8,30.49,NE,43,1.0,4.0,45,0.00,,,0.00,Wunderground v.1.15,2013-01-10 20:00:00,
2013-01-10 15:05:00,54.6,33.1,30.49,NW,321,1.0,4.0,44,0.00,,,0.00,Wunderground v.1.15,2013-01-10 20:05:00,
2013-01-10 15:10:00,54.2,32.7,30.49,North,350,2.0,4.0,44,0.00,,,0.00,Wunderground v.1.15,2013-01-10 20:10:00,
2013-01-10 15:20:00,55.0,33.5,30.50,NW,315,1.0,1.0,44,0.00,,,0.00,Wunderground v.1.15,2013-01-10 20:20:00,
2013-01-10 15:25:00,55.3,33.7,30.50,NNE,28,1.0,4.0,44,0.00,,,0.00,Wunderground v.1.15,2013-01-10 20:25:00,
2013-01-10 15:30:00,55.0,32.9,30.49,NW,322,2.0,4.0,43,0.00,,,0.00,Wunderground v.1.15,2013-01-10 20:30:00,
2013-01-10 15:35:00,54.6,33.7,30.49,NNW,327,1.0,4.0,45,0.00,,,0.00,Wunderground v.1.15,2013-01-10 20:35:00,
2013-01-10 15:40:00,54.3,32.8,30.49,North,5,1.0,4.0,44,0.00,,,0.00,Wunderground v.1.15,2013-01-10 20:40:00,
2013-01-10 15:50:00,54.7,33.8,30.49,North,355,0.0,4.0,45,0.00,,,0.00,Wunderground v.1.15,2013-01-10 20:50:00,
2013-01-10 15:55:00,54.5,34.1,30.49,North,355,0.0,4.0,46,0.00,,,0.00,Wunderground v.1.15,2013-01-10 20:55:00,
2013-01-10 16:00:00,54.4,33.5,30.49,North,355,0.0,4.0,45,0.00,,,0.00,Wunderground v.1.15,2013-01-10 21:00:00,
2013-01-10 16:10:00,54.1,33.2,30.50,North,355,0.0,4.0,45,0.00,,,0.00,Wunderground v.1.15,2013-01-10 21:10:00,
2013-01-10 16:15:00,53.7,33.9,30.50,North,360,0.0,4.0,47,0.00,,,0.00,Wunderground v.1.15,2013-01-10 21:15:00,
2013-01-10 16:20:00,53.5,33.2,30.50,North,360,1.0,4.0,46,0.00,,,0.00,Wunderground v.1.15,2013-01-10 21:20:00,
2013-01-10 16:25:00,53.3,34.1,30.49,North,360,0.0,4.0,48,0.00,,,0.00,Wunderground v.1.15,2013-01-10 21:25:00,
2013-01-10 16:30:00,53.5,34.3,30.49,North,360,0.0,4.0,48,0.00,,,0.00,Wunderground v.1.15,2013-01-10 21:30:00,
2013-01-10 16:40:00,53.5,34.3,30.49,North,360,0.0,4.0,48,0.00,,,0.00,Wunderground v.1.15,2013-01-10 21:40:00,
2013-01-10 16:45:00,53.5,33.7,30.49,North,360,0.0,4.0,47,0.00,,,0.00,Wunderground v.1.15,2013-01-10 21:45:00,
2013-01-10 16:50:00,53.2,34.0,30.49,North,360,0.0,4.0,48,0.00,,,0.00,Wunderground v.1.15,2013-01-10 21:50:00,
2013-01-10 16:55:00,53.1,34.4,30.49,North,360,0.0,4.0,49,0.00,,,0.00,Wunderground v.1.15,2013-01-10 21:55:00,
2013-01-10 17:05:00,53.0,35.8,30.49,North,360,0.0,4.0,52,0.00,,,0.00,Wunderground v.1.15,2013-01-10 22:05:00,
2013-01-10 17:10:00,53.0,36.8,30.49,North,360,0.0,4.0,54,0.00,,,0.00,Wunderground v.1.15,2013-01-10 22:10:00,
2013-01-10 17:15:00,53.1,33.9,30.49,North,360,0.0,4.0,48,0.00,,,0.00,Wunderground v.1.15,2013-01-10 22:15:00,
2013-01-10 17:20:00,53.2,36.5,30.49,North,360,0.0,4.0,53,0.00,,,0.00,Wunderground v.1.15,2013-01-10 22:20:00,
2013-01-10 17:25:00,53.4,34.7,30.48,North,360,0.0,4.0,49,0.00,,,0.00,Wunderground v.1.15,2013-01-10 22:25:00,
2013-01-10 17:35:00,52.8,34.7,30.48,North,360,0.0,4.0,50,0.00,,,0.00,Wunderground v.1.15,2013-01-10 22:35:00,
2013-01-10 17:40:00,52.6,34.0,30.48,North,360,0.0,4.0,49,0.00,,,0.00,Wunderground v.1.15,2013-01-10 22:40:00,
2013-01-10 17:45:00,52.4,34.8,30.48,North,360,0.0,4.0,51,0.00,,,0.00,Wunderground v.1.15,2013-01-10 22:45:00,
2013-01-10 17:50:00,52.2,36.5,30.48,North,360,0.0,4.0,55,0.00,,,0.00,Wunderground v.1.15,2013-01-10 22:50:00,
2013-01-10 18:00:00,51.8,33.7,30.48,North,360,0.0,4.0,50,0.00,,,0.00,Wunderground v.1.15,2013-01-10 23:00:00,
2013-01-10 18:05:00,51.6,35.9,30.49,North,360,0.0,4.0,55,0.00,,,0.00,Wunderground v.1.15,2013-01-10 23:05:00,
2013-01-10 18:10:00,51.8,36.6,30.49,North,360,0.0,4.0,56,0.00,,,0.00,Wunderground v.1.15,2013-01-10 23:10:00,
2013-01-10 18:15:00,51.9,34.8,30.49,North,360,0.0,4.0,52,0.00,,,0.00,Wunderground v.1.15,2013-01-10 23:15:00,
2013-01-10 18:20:00,51.8,35.2,30.49,North,360,0.0,4.0,53,0.00,,,0.00,Wunderground v.1.15,2013-01-10 23:20:00,
2013-01-10 18:30:00,51.5,34.4,30.49,North,360,0.0,4.0,52,0.00,,,0.00,Wunderground v.1.15,2013-01-10 23:30:00,
2013-01-10 18:35:00,51.4,36.2,30.50,North,360,0.0,4.0,56,0.00,,,0.00,Wunderground v.1.15,2013-01-10 23:35:00,
2013-01-10 18:40:00,51.3,34.7,30.50,North,360,0.0,4.0,53,0.00,,,0.00,Wunderground v.1.15,2013-01-10 23:40:00,
2013-01-10 18:45:00,51.2,35.1,30.49,North,360,0.0,4.0,54,0.00,,,0.00,Wunderground v.1.15,2013-01-10 23:45:00,
2013-01-10 18:55:00,51.0,34.5,30.49,North,360,0.0,4.0,53,0.00,,,0.00,Wunderground v.1.15,2013-01-10 23:55:00,
2013-01-10 19:00:00,50.8,33.3,30.49,North,360,0.0,4.0,51,0.00,,,0.00,Wunderground v.1.15,2013-01-11 00:00:00,
2013-01-10 19:05:00,50.6,33.6,30.50,North,360,0.0,4.0,52,0.00,,,0.00,Wunderground v.1.15,2013-01-11 00:05:00,
2013-01-10 19:10:00,50.5,34.5,30.50,North,360,0.0,4.0,54,0.00,,,0.00,Wunderground v.1.15,2013-01-11 00:10:00,
2013-01-10 19:15:00,50.2,33.2,30.50,North,360,0.0,4.0,52,0.00,,,0.00,Wunderground v.1.15,2013-01-11 00:15:00,
2013-01-10 19:25:00,49.9,33.4,30.50,North,360,0.0,4.0,53,0.00,,,0.00,Wunderground v.1.15,2013-01-11 00:25:00,
2013-01-10 19:30:00,49.7,33.2,30.50,North,360,0.0,4.0,53,0.00,,,0.00,Wunderground v.1.15,2013-01-11 00:30:00,
2013-01-10 19:35:00,49.5,33.5,30.50,North,360,0.0,4.0,54,0.00,,,0.00,Wunderground v.1.15,2013-01-11 00:35:00,
2013-01-10 19:40:00,49.4,33.4,30.50,North,360,0.0,4.0,54,0.00,,,0.00,Wunderground v.1.15,2013-01-11 00:40:00,
2013-01-10 19:45:00,49.2,34.2,30.50,North,360,0.0,4.0,56,0.00,,,0.00,Wunderground v.1.15,2013-01-11 00:45:00,
2013-01-10 19:55:00,48.6,34.9,30.50,NNE,19,0.0,4.0,59,0.00,,,0.00,Wunderground v.1.15,2013-01-11 00:55:00,
2013-01-10 20:00:00,48.4,34.3,30.50,NNE,26,0.0,4.0,58,0.00,,,0.00,Wunderground v.1.15,2013-01-11 01:00:00,
2013-01-10 20:05:00,48.1,34.0,30.49,NNE,26,0.0,4.0,58,0.00,,,0.00,Wunderground v.1.15,2013-01-11 01:05:00,
2013-01-10 20:10:00,48.0,35.2,30.50,NNE,26,0.0,4.0,61,0.00,,,0.00,Wunderground v.1.15,2013-01-11 01:10:00,
2013-01-10 20:20:00,47.9,34.7,30.50,NNE,26,0.0,4.0,60,0.00,,,0.00,Wunderground v.1.15,2013-01-11 01:20:00,
2013-01-10 20:25:00,47.8,34.2,30.50,NNE,26,0.0,4.0,59,0.00,,,0.00,Wunderground v.1.15,2013-01-11 01:25:00,
2013-01-10 20:30:00,47.6,34.0,30.50,NNE,26,0.0,4.0,59,0.00,,,0.00,Wunderground v.1.15,2013-01-11 01:30:00,
2013-01-10 20:35:00,47.4,34.2,30.50,NNE,26,0.0,4.0,60,0.00,,,0.00,Wunderground v.1.15,2013-01-11 01:35:00,
2013-01-10 20:45:00,46.9,33.7,30.50,NNE,26,0.0,4.0,60,0.00,,,0.00,Wunderground v.1.15,2013-01-11 01:45:00,
2013-01-10 20:50:00,46.8,33.6,30.49,NNE,26,0.0,4.0,60,0.00,,,0.00,Wunderground v.1.15,2013-01-11 01:50:00,
2013-01-10 20:55:00,46.6,33.4,30.50,NNE,26,0.0,4.0,60,0.00,,,0.00,Wunderground v.1.15,2013-01-11 01:55:00,
2013-01-10 21:00:00,46.4,33.3,30.50,NNE,26,0.0,4.0,60,0.00,,,0.00,Wunderground v.1.15,2013-01-11 02:00:00,
2013-01-10 21:05:00,46.2,33.1,30.50,NNE,33,0.0,4.0,60,0.00,,,0.00,Wunderground v.1.15,2013-01-11 02:05:00,
2013-01-10 21:15:00,46.1,33.4,30.50,NNE,33,0.0,4.0,61,0.00,,,0.00,Wunderground v.1.15,2013-01-11 02:15:00,
2013-01-10 21:20:00,46.0,32.9,30.50,NNE,33,0.0,4.0,60,0.00,,,0.00,Wunderground v.1.15,2013-01-11 02:20:00,
2013-01-10 21:25:00,46.0,33.7,30.50,NNE,33,0.0,4.0,62,0.00,,,0.00,Wunderground v.1.15,2013-01-11 02:25:00,
2013-01-10 21:35:00,45.8,33.1,30.51,NE,36,0.0,4.0,61,0.00,,,0.00,Wunderground v.1.15,2013-01-11 02:35:00,
2013-01-10 21:40:00,45.7,33.0,30.51,NE,36,0.0,4.0,61,0.00,,,0.00,Wunderground v.1.15,2013-01-11 02:40:00,
2013-01-10 21:45:00,45.5,32.8,30.50,NE,36,0.0,4.0,61,0.00,,,0.00,Wunderground v.1.15,2013-01-11 02:45:00,
2013-01-10 21:50:00,45.5,32.8,30.51,East,91,1.0,1.0,61,0.00,,,0.00,Wunderground v.1.15,2013-01-11 02:50:00,
2013-01-10 21:55:00,45.4,32.7,30.51,East,84,1.0,4.0,61,0.00,,,0.00,Wunderground v.1.15,2013-01-11 02:55:00,
2013-01-10 22:05:00,45.3,32.6,30.50,ESE,109,2.0,4.0,61,0.00,,,0.00,Wunderground v.1.15,2013-01-11 03:05:00,
2013-01-10 22:10:00,45.2,32.5,30.50,East,96,2.0,4.0,61,0.00,,,0.00,Wunderground v.1.15,2013-01-11 03:10:00,
2013-01-10 22:15:00,45.2,32.5,30.50,East,99,2.0,4.0,61,0.00,,,0.00,Wunderground v.1.15,2013-01-11 03:15:00,
2013-01-10 22:20:00,45.2,32.9,30.49,ESE,117,3.0,4.0,62,0.00,,,0.00,Wunderground v.1.15,2013-01-11 03:20:00,
2013-01-10 22:25:00,45.2,32.5,30.49,East,90,2.0,4.0,61,0.00,,,0.00,Wunderground v.1.15,2013-01-11 03:25:00,
2013-01-10 22:35:00,45.0,32.8,30.50,East,92,1.0,4.0,62,0.00,,,0.00,Wunderground v.1.15,2013-01-11 03:35:00,
2013-01-10 22:40:00,45.0,32.8,30.50,East,92,0.0,4.0,62,0.00,,,0.00,Wunderground v.1.15,2013-01-11 03:40:00,
2013-01-10 22:45:00,44.9,32.7,30.50,East,91,0.0,4.0,62,0.00,,,0.00,Wunderground v.1.15,2013-01-11 03:45:00,
2013-01-10 22:50:00,44.7,32.5,30.50,ENE,75,1.0,4.0,62,0.00,,,0.00,Wunderground v.1.15,2013-01-11 03:50:00,
2013-01-10 23:00:00,44.6,32.8,30.49,East,87,2.0,2.0,63,0.00,,,0.00,Wunderground v.1.15,2013-01-11 04:00:00,
2013-01-10 23:05:00,44.5,32.7,30.49,East,87,1.0,4.0,63,0.00,,,0.00,Wunderground v.1.15,2013-01-11 04:05:00,
2013-01-10 23:10:00,44.3,32.5,30.49,East,87,1.0,1.0,63,0.00,,,0.00,Wunderground v.1.15,2013-01-11 04:10:00,
2013-01-10 23:15:00,44.2,32.8,30.49,East,87,1.0,4.0,64,0.00,,,0.00,Wunderground v.1.15,2013-01-11 04:15:00,
2013-01-10 23:20:00,44.1,32.7,30.49,East,88,1.0,4.0,64,0.00,,,0.00,Wunderground v.1.15,2013-01-11 04:20:00,
2013-01-10 23:30:00,44.0,32.6,30.49,East,97,2.0,4.0,64,0.00,,,0.00,Wunderground v.1.15,2013-01-11 04:30:00,
2013-01-10 23:35:00,43.9,32.5,30.49,East,96,1.0,4.0,64,0.00,,,0.00,Wunderground v.1.15,2013-01-11 04:35:00,
2013-01-10 23:40:00,43.8,32.4,30.49,East,91,1.0,4.0,64,0.00,,,0.00,Wunderground v.1.15,2013-01-11 04:40:00,
2013-01-10 23:50:00,43.7,32.3,30.49,East,92,2.0,2.0,64,0.00,,,0.00,Wunderground v.1.15,2013-01-11 04:50:00,
2013-01-10 23:55:00,43.6,32.2,30.49,East,92,1.0,4.0,64,0.00,,,0.00,Wunderground v.1.15,2013-01-11 04:55:00,